Weather observations for the past three days for
Gainesville, Gainesville Regional Airport
Imperial (Metric)
Date Time (edt) Wind (mph) Vis. (mi.) Weather Sky Cond. Temperature (ºF) Relative Humidity Wind Chill (°F) Heat Index (°F) Pressure Precipitation (in)
Air Dwpt 6 hour altimeter (in) sea level (mb) 1 hr 3 hr 6 hr
Max. Min.
19 03:53 E 10 10.00 Overcast OVC050 75.9 72 88% 76 30.06 1017.6
19 02:53 NE 7 10.00 Mostly Cloudy FEW030 BKN036 73.9 72 94% 30.06 1017.7
19 01:53 NE 6 10.00 A Few Clouds FEW075 73.9 73 78.1 73.9 97% 30.07 1018.0
19 00:53 NE 7 10.00 A Few Clouds FEW043 FEW075 73.9 73 97% 30.08 1018.4
18 23:53 E 10 10.00 Overcast SCT020 SCT025 OVC033 75.9 72 88% 76 30.09 1018.6
18 22:53 NE 8 10.00 A Few Clouds FEW030 FEW041 75 72 90% 74 30.08 1018.3
18 21:53 E 8 10.00 Overcast SCT050 OVC085 77 71.1 82% 79 30.07 1018.0
18 20:53 E 9 10.00 Overcast FEW055 OVC085 75.9 71.1 85% 76 30.06 1017.7
18 19:53 E 14 G 22 10.00 Overcast BKN024 OVC049 78.1 72 90 78.1 82% 80 30.06 1017.7
18 18:53 E 17 G 25 10.00 Overcast SCT046 OVC075 81 71.1 72% 85 30.05 1017.2
18 17:53 NE 14 10.00 Overcast OVC085 84 71.1 65% 89 30.03 1016.7
18 16:53 E 13 G 25 10.00 Partly Cloudy FEW040 SCT085 87.1 70 57% 92 30.04 1016.9
18 15:53 E 18 G 31 10.00 Partly Cloudy FEW046 SCT055 SCT070 87.1 69.1 55% 91 30.04 1017.0
18 14:53 E 15 G 29 10.00 A Few Clouds FEW047 FEW055 88 69.1 54% 92 30.04 1017.0
18 13:53 E 18 G 28 10.00 Partly Cloudy FEW055 SCT070 89.1 68 90 73.9 50% 93 30.04 1017.0
18 12:53 E 16 G 24 10.00 Fair CLR 88 71.1 57% 94 30.05 1017.3
18 11:53 NE 20 G 28 10.00 A Few Clouds FEW045 86 69.1 57% 90 30.06 1017.6
18 10:53 E 12 G 22 10.00 A Few Clouds FEW040 84.9 68 57% 88 30.07 1017.9
18 09:53 E 12 10.00 Fair CLR 82 69.1 65% 85 30.08 1018.3
18 08:53 E 8 10.00 Fair CLR 79 71.1 77% 82 30.09 1018.5
18 07:53 NE 7 10.00 Fair CLR 73.9 72 73.9 69.1 94% 30.07 1018.0
18 06:53 Calm 10.00 Fair CLR 69.1 69.1 100% 30.07 1017.9
18 04:53 NE 5 10.00 A Few Clouds FEW029 71.1 70 96% 30.04 1017.0
18 03:53 E 3 10.00 Fair CLR 71.1 70 96% 30.04 1017.1
18 02:53 Calm 10.00 A Few Clouds FEW028 72 71.1 97% 30.05 1017.4
18 01:53 Calm 10.00 Fair CLR 73 70 81 73 90% 30.07 1018.0
18 00:53 Calm 10.00 Overcast OVC075 73.9 70 88% 30.09 1018.5
17 23:53 Calm 10.00 Fair CLR 73.9 70 88% 30.09 1018.6
17 22:53 E 6 10.00 Fair CLR 75.9 70 82% 77 30.08 1018.4
17 21:53 NE 8 10.00 Fair CLR 77 69.1 77% 79 30.08 1018.2
17 19:53 E 9 10.00 A Few Clouds FEW070 81 69.1 91 81 67% 84 30.06 1017.5
17 18:53 E 16 G 30 10.00 Mostly Cloudy SCT070 BKN090 82 69.1 65% 85 30.04 1017.1
17 17:53 NE 20 G 38 10.00 A Few Clouds FEW060 84.9 69.1 59% 89 30.03 1016.6
17 16:53 NE 18 G 29 10.00 Fair CLR 89.1 66 47% 92 30.04 1016.8
17 15:53 E 17 G 32 10.00 Fair CLR 90 66 45% 93 30.05 1017.4
17 14:53 E 15 G 24 10.00 A Few Clouds FEW055 91 66.9 45% 94 30.07 1018.1
17 13:53 E 16 G 26 10.00 A Few Clouds FEW060 91 68 91 75.9 47% 95 30.09 1018.6
17 12:53 E 17 G 28 10.00 Fair CLR 90 69.1 50% 95 30.1 1018.9
17 11:53 E 13 G 22 10.00 Partly Cloudy SCT043 87.1 71.1 59% 93 30.11 1019.3
17 10:53 E 12 10.00 Partly Cloudy SCT036 SCT048 84 72 67% 90 30.12 1019.5
17 09:53 E 10 10.00 Partly Cloudy SCT026 SCT032 82 73 74% 87 30.11 1019.4
17 08:53 E 10 10.00 Fair CLR 79 73.9 85% 83 30.11 1019.2
17 07:53 NE 6 10.00 A Few Clouds FEW002 75.9 73.9 75.9 70 94% 75 30.1 1019.1
17 06:53 Calm 10.00 Partly Cloudy SCT002 71.1 71.1 100% 30.09 1018.6
17 05:53 Calm 10.00 Fair CLR 71.1 71.1 100% 30.07 1018.0
17 04:53 Calm 10.00 Fair CLR 73 72 96% 30.07 1018.1
17 03:53 Calm 10.00 Fair CLR 73 73 100% 30.08 1018.1
17 02:53 NE 7 10.00 Fair CLR 73 73 100% 30.09 1018.6
17 01:53 E 3 10.00 Fair CLR 73.9 73 82.9 73.9 97% 30.11 1019.0
17 00:53 Calm 10.00 Partly Cloudy SCT020 75.9 73 91% 76 30.12 1019.5
16 23:53 E 3 10.00 Fair CLR 75.9 73 91% 76 30.11 1019.3
16 22:53 E 3 10.00 Fair CLR 78.1 73 85% 81 30.11 1019.3
16 21:53 E 5 10.00 Fair CLR 79 72 79% 82 30.09 1018.5
16 20:53 E 7 10.00 Fair CLR 81 71.1 72% 85 30.07 1018.0
16 19:53 E 10 10.00 Fair CLR 82.9 71.1 93.9 82.9 67% 88 30.06 1017.5
16 18:53 E 10 10.00 Fair CLR 84.9 73 68% 92 30.04 1017.1
16 17:53 E 9 10.00 Fair CLR 87.1 73 63% 95 30.03 1016.7
16 16:53 E 10 10.00 Partly Cloudy SCT047 89.1 73 59% 97 30.03 1016.5
16 15:53 E 12 G 21 10.00 Fair CLR 91.9 73 54% 101 30.02 1016.2
16 14:53 Vrbl 5 10.00 Fair CLR 93 73 52% 102 30.03 1016.6
16 13:53 Calm 10.00 A Few Clouds FEW048 91.9 73 91.9 75 54% 101 30.06 1017.5
16 12:53 Calm 10.00 Fair CLR 89.1 75 63% 99 30.08 1018.3
16 11:53 Vrbl 3 10.00 Fair CLR 86 73.9 67% 94 30.09 1018.8
16 10:53 E 6 10.00 Fair CLR 82.9 75.9 79% 91 30.1 1018.8
16 09:53 Calm 10.00 A Few Clouds FEW001 FEW013 82 77 85% 90 30.1 1018.8
16 08:53 Calm 10.00 Fair CLR 78.1 75.9 93% 81 30.09 1018.5
16 07:53 Calm 10.00 Fair CLR 73.9 73.9 73.9 70 100% 30.08 1018.4
16 06:53 Calm 10.00 Fair CLR 71.1 71.1 100% 30.06 1017.7
16 05:53 NE 3 10.00 Fair CLR 71.1 71.1 100% 30.04 1017.0
16 04:53 Calm 10.00 Fair CLR 71.1 71.1 100% 30.04 1016.7
Date Time (edt) Wind (mph) Vis. (mi.) Weather Sky Cond. Air Dwpt Max. Min. Relative Humidity Wind Chill (°F) Heat Index (°F) altimeter (in) sea level (mb) 1 hr 3 hr 6 hr
6 hour
Temperature (ºF) Pressure Precipitation (in)